Regional Weather Roundup
Issued by NWS

Home | Current Version | Previous Version | Graphics & Text | Print | Product List | Glossary Off
Versions: 1 2 3 4 5 6 7 8 9 10 11 12 13 14 15 16 17 18 19 20 21 22 23 24 25 26 27 28 29 30 31 32 33 34 35 36 37 38 39 40 41 42 43 44 45 46 47 48 49 50

000
ASUS43 KMKX 190211
RWRWI

WISCONSIN REGIONAL WEATHER ROUNDUP
NATIONAL WEATHER SERVICE MILWAUKEE/SULLIVAN WI
900 PM CDT MON SEP 18 2017

NOTE: "FAIR" INDICATES FEW OR NO CLOUDS BELOW 12,000 FEET WITH NO
SIGNIFICANT WEATHER AND/OR OBSTRUCTIONS TO VISIBILITY.

WIZ001-002-006>008-014>016-023>028-190300-
NORTHWEST WISCONSIN

CITY           SKY/WX    TMP DP  RH WIND       PRES   REMARKS
SUPERIOR ARPT  CLOUDY    55  50  82 CALM      30.01R
ASHLAND        CLOUDY    55  53  93 CALM      30.04R
HAYWARD        CLOUDY    56  51  84 CALM      30.02S
SIREN          CLOUDY    55  51  87 SE5       30.00S
CUMBERLAND     CLOUDY    54  52  94 SE6       30.00F
RICE LAKE      CLOUDY    56  55  94 E5        30.02F
CHETEK         CLOUDY    56  55  97 SE3       30.01F
LADYSMITH      CLOUDY    57  55  91 CALM      30.04F
EAU CLAIRE     CLOUDY    56  54  93 E6        29.99F
MENOMONIE      CLOUDY    57  57 100 CALM      30.00S
NEW RICHMOND   CLOUDY    56  53  89 SE7       29.99R
OSCEOLA        CLOUDY    56  56 100 CALM      30.01S
$$

WIZ003>005-009-010-017-018-190300-
NORTH CENTRAL WISCONSIN

CITY           SKY/WX    TMP DP  RH WIND       PRES   REMARKS
MANITOWISH WTR CLOUDY    53  53 100 CALM      30.07R
ARBOR VITAE    DRIZZLE   57  56  96 CALM      30.07R
WOODRUFF       DRIZZLE   57  56  96 CALM      30.07R
RHINELANDER    CLOUDY    57  56  96 SE6       30.05R
EAGLE RIVER    LGT RAIN  56  55  97 NW5       30.06R
LAND O LAKES   LGT RAIN  55  55  99 NW3       30.09R
PHILLIPS       CLOUDY    54  54 100 N3        30.04S
TOMAHAWK         N/A     56  54  92 CALM      30.05R
MEDFORD        CLOUDY    57  56  94 CALM      30.03S
MERRILL        DRIZZLE   57  57 100 SE6       30.04R
$$

WIZ029-030-035-036-043>047-190300-
CENTRAL WISCONSIN

CITY           SKY/WX    TMP DP  RH WIND       PRES   REMARKS
WAUSAU         CLOUDY    58  56  93 E10       30.02R
MOSINEE        MOCLDY    57  57 100 E8        30.03F
MARSHFIELD     CLOUDY    60  56  86 E7        30.01S
STEVENS POINT  CLOUDY    60  55  83 E10       30.03S
WAUPACA        CLOUDY    64  55  72 E8        30.04F HAZE
WAUTOMA        MOCLDY    63  55  75 E9        30.03F
WISC RAPIDS    CLOUDY    63  56  78 SE8       30.02S
CAMP DOUGLAS   CLOUDY    61  61 100 E3        29.99F
$$

WIZ011>013-019>022-031-037>040-048>050-190300-
NORTHEAST WISCONSIN

CITY           SKY/WX    TMP DP  RH WIND       PRES   REMARKS
ANTIGO         LGT RAIN  56  55  95 SE8       30.06R
SHAWANO        PTCLDY    60  55  84 E6        30.06F
OCONTO         CLOUDY    60  50  71 E3        30.06S
STURGEON BAY   MOCLDY    58  51  78 E7        30.07S
GREEN BAY      MOCLDY    60  53  77 CALM      30.06F
MANITOWOC      CLOUDY    57  53  86 NW5       30.06F
APPLETON       MOCLDY    61  48  63 E8        30.04F
CLINTONVILLE   CLOUDY    59  52  77 E3        30.05F
OSHKOSH        CLOUDY    63  54  72 E9        30.04F
$$

WIZ032>034-041-042-053>061-190300-
SOUTHWEST WISCONSIN

CITY           SKY/WX    TMP DP  RH WIND       PRES   REMARKS
LA CROSSE      CLOUDY    61  58  90 CALM      29.98S
SPARTA         CLOUDY    57  57  99 CALM      29.99F
VIROQUA        CLOUDY    59  59  99 E8        30.00S
BOSCOBEL       CLOUDY    66  57  72 CALM      29.99R
PRAIRIE DU CHI CLOUDY    64  57  76 CALM      29.97F
PLATTEVILLE    PTCLDY    68  56  65 E6        29.98S
$$

WIZ056-057-062-063-064-067-068-190300-
SOUTH CENTRAL WISCONSIN

CITY           SKY/WX    TMP DP  RH WIND       PRES   REMARKS
REEDSBURG      CLOUDY    66  56  70 E7        29.99S
BARABOO/DELLS  CLOUDY    64  52  65 E8        30.01R
LONE ROCK      CLOUDY    66  59  78 CALM      29.98S
MINERAL POINT  MOCLDY    68  52  56 CALM      29.99S
MADISON        CLOUDY    65  54  67 E8        30.00S
MIDDLETON      CLOUDY    67  56  67 E7        30.02R
WATERTOWN      CLOUDY    61  56  83 E8        30.03S
MONROE         CLOUDY    66  54  63 E6        30.00R
JANESVILLE     CLEAR     66  54  63 E7        30.00S
$$

WIZ051-052-058>065-066-070>072-190300-
SOUTHEAST WISCONSIN

CITY           SKY/WX    TMP DP  RH WIND       PRES   REMARKS
MILWAUKEE      MOCLDY    64  58  80 NE3       30.03S
WAUKESHA       PTCLDY    59  54  82 NE5       30.05S
MILWAUKEE/TIMM PTCLDY    61  52  72 CALM      30.05S
RACINE         PTCLDY    61  58  90 NE3       30.04F
BURLINGTON     CLOUDY    61  59  94 E3        30.03F
KENOSHA        MOCLDY    61  57  87 CALM      30.03F
FOND DU LAC    CLOUDY    62  51  67 E7        30.05S
SHEBOYGAN      PTCLDY    56  56 100 CALM      30.06R
WEST BEND        N/A     59  54  82 CALM      30.05F
JUNEAU         CLOUDY    60  52  76 E5        30.05S
$$

LSZ147-162-190300-
LAKE SUPERIOR

STATION/POSITION TIME  TEMP    WIND        PRES    WAVE
                       AIR SEA DIR/SP/G            HT/PER
                 (UTC) (F)     (DEG/KT/KT) (MB)    (FT/S)
W MID LAKE BUOY  0150   57 54  190/  8/  8 1017.4R   1
DEVILS ISLAND    0200   58     170/  4/  5 1017.3F
SAXON HARBOR     0140   56      CALM  /  1 1016.9S
$$

LMZ867-665-643>646-190300-
LAKE MICHIGAN

STATION/POSITION TIME  TEMP    WIND        PRES    WAVE
                       AIR SEA DIR/SP/G            HT/PER
                 (UTC) (F)     (DEG/KT/KT) (MB)    (FT/S)
S GREEN BAY BUOY 0130   62 66  100/ 12/ 14 1017.8F
N MID LAKE BUOY  0150   63 65   70/  8/  8 1018.9S   0
NORTHPORT PIER   0140   63      90/  7/  8 1017.9F
KEWAUNEE LAKESHO 0142   58      20/  3/  6 1017.2R
SHEBOYGAN LAKESH 0200   64      30/ 10/ 10 1017.2R
PORT WASHINGTON  0140   65      40/  9/ 10 1017.9S
ATWATER BUOY     0109   66 67   50/ 10/ 12 1017.2R
MILWAUKEE LAKESH 0150   65      50/  8/  9   N/A
S MID LAKE BUOY  0150   67 68   30/  8/ 10 1016.7R   2/ 5
KENOSHA   LAKESH 0200   65      50/  8/  9 1016.6
$$

TC  - TEMPERATURE IN CELSIUS
VSB - VISIBILITY IN STATUTE MILES
WCI - WIND CHILL INDEX
HX  - HEAT INDEX





USA.gov is the U.S. government's official web portal to all federal, state and local government web resources and services.